DDRWON EDON-EDON

Flight info

Callsign DDRWON
Flight time 0h 5m
Altitude 1500
Route VFR
Aircraft C172/L-V/N

Departure

Time 2026-04-25 22:35
Airport Neuhardenberg Marxwalde Airfield (EDON)

Arrival

Time 2026-04-25 22:40
Airport Neuhardenberg Marxwalde Airfield (EDON)
Time Latitude Longitude Altitude Speed Heading
2026-04-25 22:30 52.60619 14.23893 33 ft 0 kts 195°
2026-04-25 22:30 52.60638 14.23732 33 ft 30 kts 297°
2026-04-25 22:30 52.60742 14.23357 34 ft 36 kts 296°
2026-04-25 22:30 52.60809 14.23111 33 ft 33 kts 294°
2026-04-25 22:31 52.60978 14.22738 33 ft 29 kts 326°
2026-04-25 22:31 52.61143 14.22558 33 ft 26 kts 349°
2026-04-25 22:31 52.61194 14.22624 32 ft 0 kts 86°
2026-04-25 22:31 52.61196 14.22652 32 ft 14 kts 80°
2026-04-25 22:32 52.61231 14.23128 32 ft 66 kts 83°
2026-04-25 22:32 52.61253 14.23914 210 ft 66 kts 75°
2026-04-25 22:32 52.61351 14.24639 35 ft 85 kts 36°
2026-04-25 22:32 52.61403 14.25448 373 ft 69 kts 120°
2026-04-25 22:33 52.60958 14.26015 437 ft 87 kts 169°
2026-04-25 22:33 52.60569 14.26567 531 ft 60 kts 228°
2026-04-25 22:33 52.60654 14.26122 580 ft 66 kts 14°
2026-04-25 22:33 52.61082 14.26774 370 ft 105 kts 13°
2026-04-25 22:34 52.61256 14.25876 209 ft 108 kts 275°
2026-04-25 22:34 52.61294 14.24578 134 ft 111 kts 269°
2026-04-25 22:34 52.61170 14.23403 402 ft 93 kts 257°
2026-04-25 22:34 52.60875 14.22486 619 ft 90 kts 246°
2026-04-25 22:35 52.60497 14.21640 744 ft 97 kts 239°
2026-04-25 22:35 52.60030 14.20932 1059 ft 88 kts 230°
2026-04-25 22:35 52.59399 14.20587 1216 ft 111 kts 185°
2026-04-25 22:35 52.58846 14.21425 1323 ft 114 kts 82°
2026-04-25 22:36 52.59243 14.22023 1364 ft 77 kts 323°
2026-04-25 22:36 52.59204 14.21260 1668 ft 94 kts 222°
2026-04-25 22:36 52.58571 14.21947 1519 ft 136 kts 84°
2026-04-25 22:36 52.58904 14.22451 1709 ft 77 kts 300°
2026-04-25 22:37 52.58426 14.21861 1815 ft 124 kts 170°
2026-04-25 22:37 52.57650 14.22609 1935 ft 127 kts 162°
2026-04-25 22:37 52.56953 14.22546 2257 ft 76 kts 245°
2026-04-25 22:37 52.57169 14.22140 2097 ft 99 kts 20°
2026-04-25 22:38 52.57127 14.23537 1824 ft 152 kts 79°
2026-04-25 22:38 52.57650 14.24925 1230 ft 140 kts 21°
2026-04-25 22:38 52.58493 14.25426 930 ft 133 kts
2026-04-25 22:38 52.59427 14.25509 488 ft 130 kts 352°
2026-04-25 22:39 52.60299 14.25398 360 ft 118 kts 346°
2026-04-25 22:39 52.61072 14.24964 100 ft 121 kts 327°
2026-04-25 22:39 52.61373 14.25660 652 ft 65 kts
2026-04-25 22:39 52.61560 14.24978 480 ft 100 kts 260°
2026-04-25 22:40 52.61335 14.23851 308 ft 119 kts 259°
2026-04-25 22:40 52.61233 14.23674 29 ft 0 kts 166°
2026-04-25 22:43 52.61192 14.22530 32 ft 0 kts 84°
2026-04-25 22:43 52.61211 14.22874 34 ft 57 kts 78°
2026-04-25 22:43 52.61396 14.23238 135 ft 44 kts 322°
2026-04-25 22:44 52.61283 14.22631 225 ft 66 kts 247°
2026-04-25 22:44 52.60833 14.22759 353 ft 89 kts 93°
2026-04-25 22:44 52.64641 14.33638 566 ft 84 kts 73°
2026-04-25 22:44 52.60118 14.29604 1099 ft 122 kts 107°
2026-04-25 22:45 52.59545 14.30526 1048 ft 112 kts 101°
2026-04-25 22:45 52.59146 14.31820 1023 ft 142 kts 111°
2026-04-25 22:45 52.59390 14.33166 1114 ft 151 kts 49°
2026-04-25 22:45 52.60158 14.33819 1052 ft 123 kts 339°
2026-04-25 22:46 52.61002 14.33162 974 ft 118 kts 324°
2026-04-25 22:46 52.61533 14.32318 866 ft 108 kts 283°
2026-04-25 22:46 52.61545 14.30833 738 ft 131 kts 279°
2026-04-25 22:46 52.61546 14.29636 520 ft 114 kts 264°
2026-04-25 22:47 52.61509 14.28331 309 ft 120 kts 284°
2026-04-25 22:47 52.61456 14.26869 366 ft 130 kts 242°
2026-04-25 22:47 52.61222 14.25598 154 ft 114 kts 285°
2026-04-25 22:47 52.61327 14.24321 164 ft 106 kts 272°
2026-04-25 22:48 52.61214 14.23226 202 ft 99 kts 241°
2026-04-25 22:48 52.61199 14.22558 119 ft 72 kts 54°
2026-04-25 22:48 52.61161 14.23434 121 ft 82 kts 131°
2026-04-25 22:48 52.60793 14.23253 82 ft 63 kts 278°
2026-04-25 22:49 52.60909 14.22820 40 ft 59 kts 313°
2026-04-25 22:49 52.61294 14.22618 70 ft 78 kts 100°
2026-04-25 22:49 52.60752 14.23373 76 ft 88 kts 68°
2026-04-25 22:49 52.60702 14.24057 270 ft 98 kts 180°
2026-04-25 22:50 52.60715 14.23442 33 ft 55 kts 297°
2026-04-25 22:50 52.60908 14.23317 63 ft 77 kts 86°
2026-04-25 22:50 52.60680 14.23957 72 ft 83 kts 215°
2026-04-25 22:50 52.60764 14.23690 45 ft 70 kts 62°
2026-04-25 22:51 52.61001 14.23855 147 ft 57 kts 277°
2026-04-25 22:51 52.61026 14.23577 264 ft 96 kts 267°
2026-04-25 22:51 52.60505 14.23816 81 ft 87 kts 141°
2026-04-25 22:51 52.60496 14.24076 30 ft 0 kts 329°
2026-04-25 22:52 52.60596 14.23741 33 ft 0 kts 21°
2026-04-25 22:53 52.60588 14.23720 33 ft 6 kts 123°
2026-04-25 22:53 52.60590 14.23736 33 ft 0 kts 50°
2026-04-25 22:53 52.60590 14.23737 33 ft 0 kts 34°
2026-04-25 22:54 52.60593 14.23736 33 ft 0 kts 319°
2026-04-25 22:54 52.60593 14.23735 33 ft 0 kts 311°
2026-04-25 22:55 52.60594 14.23734 33 ft 0 kts 305°
2026-04-25 22:55 52.60594 14.23733 33 ft 0 kts 305°
2026-04-25 22:55 52.60595 14.23732 33 ft 0 kts 288°
2026-04-25 22:56 52.60637 14.23644 33 ft 28 kts 340°
2026-04-25 22:56 52.60816 14.23225 82 ft 55 kts 305°
2026-04-25 22:56 52.60664 14.22799 173 ft 92 kts 140°
2026-04-25 22:57 52.60701 14.23345 126 ft 46 kts 316°
2026-04-25 22:57 52.60854 14.22902 47 ft 42 kts 298°
2026-04-25 22:57 52.61064 14.22650 50 ft 33 kts 310°
2026-04-25 22:57 52.61230 14.22429 32 ft 20 kts
2026-04-25 22:58 52.61247 14.22493 32 ft 13 kts 116°
2026-04-25 22:58 52.61196 14.22919 43 ft 56 kts 65°
2026-04-25 22:58 52.61426 14.23191 115 ft 37 kts 304°
2026-04-25 22:58 52.61354 14.22697 133 ft 42 kts 253°
2026-04-25 22:59 52.61160 14.22508 83 ft 0 kts 147°
2026-04-25 22:59 52.61052 14.22819 113 ft 74 kts 18°
2026-04-25 22:59 52.60949 14.22603 111 ft 57 kts 257°
2026-04-25 22:59 52.61188 14.22648 77 ft 50 kts 34°
2026-04-25 23:00 52.61284 14.23924 322 ft 1 kts 126°
2026-04-25 23:00 52.61285 14.24645 31 ft 0 kts 298°